Location: Berduj
(43.0019°N, 22.3781°E)
Time: 23:54:04
(UTC+00:00)

Cosmos 1535 Rocket - Pass Details

Date: 19 October 2019
Orbit: 947 x 1005 km, 83.0° (Epoch: 11 November)

Event Time Altitude Azimuth Distance (km) Brightness Sun altitude
Rises 16:27:50 0° 353° (N) 3,674 7.6 -9.1°
Reaches altitude 10° 16:30:22 10° 354° (N) 2,715 6.9 -9.5°
Maximum altitude 16:36:35 80° 82° (E) 975 4.4 -10.7°
Drops below altitude 10° 16:42:41 10° 170° (S) 2,667 6.7 -11.8°
Sets 16:45:10 0° 171° (S) 3,605 7.4 -12.2°
